WZZ1CP LKPR-EPKK

Flight info

Callsign WZZ1CP
Flight time N/A
Altitude 23000
Route VOZ4B/30 VOZ DCT BODAL DCT PADKA
Aircraft A21N/M-SDE2E3FGHIRWXY/LB1

Departure

Time 2026-05-07 18:33
Airport Václav Havel Airport Prague (LKPR)

Arrival

Time N/A
Airport Kraków John Paul II International Airport (EPKK)
Time Latitude Longitude Altitude Speed Heading
2026-05-07 18:01 50.11059 14.26728 1177 ft 0 kts 78°
2026-05-07 18:16 50.11058 14.26726 1151 ft 2 kts 78°
2026-05-07 18:17 50.11051 14.26692 1176 ft 4 kts 46°
2026-05-07 18:17 50.11032 14.26678 1174 ft 4 kts 337°
2026-05-07 18:17 50.11023 14.26686 1174 ft 1 kts 329°
2026-05-07 18:17 50.11022 14.26686 1174 ft 0 kts 329°
2026-05-07 18:20 50.11039 14.26670 1176 ft 7 kts 329°
2026-05-07 18:20 50.11075 14.26586 1175 ft 11 kts 268°
2026-05-07 18:21 50.11033 14.26498 1170 ft 10 kts 214°
2026-05-07 18:21 50.10974 14.26436 1171 ft 12 kts 214°
2026-05-07 18:21 50.10900 14.26355 1171 ft 13 kts 215°
2026-05-07 18:21 50.10836 14.26285 1173 ft 9 kts 213°
2026-05-07 18:22 50.10770 14.26217 1176 ft 15 kts 214°
2026-05-07 18:22 50.10719 14.26163 1180 ft 11 kts 214°
2026-05-07 18:22 50.10643 14.26081 1185 ft 13 kts 214°
2026-05-07 18:22 50.10580 14.26019 1189 ft 8 kts 213°
2026-05-07 18:23 50.10528 14.25982 1191 ft 10 kts 185°
2026-05-07 18:23 50.10449 14.26085 1194 ft 18 kts 127°
2026-05-07 18:23 50.10384 14.26223 1196 ft 13 kts 127°
2026-05-07 18:23 50.10339 14.26313 1197 ft 11 kts 127°
2026-05-07 18:24 50.10281 14.26433 1198 ft 17 kts 127°
2026-05-07 18:24 50.10205 14.26592 1204 ft 19 kts 127°
2026-05-07 18:24 50.10138 14.26730 1207 ft 13 kts 126°
2026-05-07 18:24 50.10095 14.26817 1210 ft 7 kts 128°
2026-05-07 18:25 50.10060 14.26891 1212 ft 13 kts 127°
2026-05-07 18:25 50.10012 14.26989 1212 ft 10 kts 127°
2026-05-07 18:25 50.09977 14.27062 1212 ft 8 kts 127°
2026-05-07 18:25 50.09924 14.27172 1214 ft 17 kts 127°
2026-05-07 18:26 50.09853 14.27310 1214 ft 15 kts 133°
2026-05-07 18:26 50.09793 14.27406 1216 ft 11 kts 136°
2026-05-07 18:26 50.09733 14.27498 1217 ft 14 kts 135°
2026-05-07 18:26 50.09661 14.27610 1221 ft 16 kts 135°
2026-05-07 18:27 50.09569 14.27752 1227 ft 22 kts 135°
2026-05-07 18:27 50.09461 14.27918 1244 ft 18 kts 135°
2026-05-07 18:27 50.09382 14.28038 1248 ft 13 kts 135°
2026-05-07 18:27 50.09341 14.28101 1251 ft 13 kts 136°
2026-05-07 18:28 50.09266 14.28217 1246 ft 9 kts 135°
2026-05-07 18:28 50.09216 14.28275 1253 ft 10 kts 160°
2026-05-07 18:28 50.09169 14.28282 1247 ft 1 kts 195°
2026-05-07 18:28 50.09166 14.28280 1249 ft 1 kts 198°
2026-05-07 18:29 50.09147 14.28264 1247 ft 2 kts 217°
2026-05-07 18:31 50.09145 14.28261 1246 ft 3 kts 217°
2026-05-07 18:31 50.09106 14.28191 1249 ft 15 kts 240°
2026-05-07 18:31 50.09108 14.28038 1251 ft 13 kts 298°
2026-05-07 18:32 50.09149 14.27949 1253 ft 8 kts 307°
2026-05-07 18:32 50.09201 14.27842 1251 ft 32 kts 307°
2026-05-07 18:32 50.09460 14.27307 1223 ft 92 kts 307°
2026-05-07 18:32 50.09981 14.26233 1196 ft 154 kts 307°
2026-05-07 18:33 50.10657 14.24847 1687 ft 160 kts 308°
2026-05-07 18:33 50.11380 14.23460 2350 ft 170 kts 309°
2026-05-07 18:33 50.12137 14.21888 2717 ft 192 kts 309°
2026-05-07 18:33 50.12980 14.20108 2969 ft 214 kts 308°
2026-05-07 18:34 50.13584 14.18837 3157 ft 227 kts 309°
2026-05-07 18:34 50.14549 14.16815 3634 ft 236 kts 308°
2026-05-07 18:34 50.15550 14.14723 4122 ft 246 kts 307°
2026-05-07 18:34 50.16596 14.12539 4708 ft 256 kts 306°